Location: The Stocker AstroScience Center
(25.7579°N, 80.3725°W)
Time: 17:26:01
(UTC-04:00)

ISS - All Passes

Search period start: 27 August 2015 00:00
Search period end: 06 September 2015 00:00
Orbit: 399 x 402 km, 51.6° (Epoch: 27 August)

Date Brightness Start Highest point End Pass type
(mag) Time Alt. Az. Time Alt. Az. Time Alt. Az.
27 Aug - 10:16:49 10° SW 10:20:03 86° NW 10:23:17 10° NE daylight
27 Aug - 18:27:08 10° NNW 18:29:51 25° NE 18:32:36 10° ESE daylight
27 Aug - 20:04:04 10° W 20:06:06 15° SW 20:08:03 10° SSW visible
28 Aug - 09:23:39 10° SSW 09:26:36 33° SE 09:29:35 10° ENE daylight
28 Aug - 11:01:25 10° WNW 11:03:06 13° NW 11:04:42 10° N daylight
28 Aug - 17:34:49 10° NNE 17:36:09 12° NE 17:37:35 10° ENE daylight
28 Aug - 19:09:39 10° WNW 19:12:41 37° SW 19:15:42 10° SSE daylight
29 Aug - 08:31:28 10° SSE 08:33:10 14° SE 08:34:59 10° E daylight
29 Aug - 10:06:34 10° WSW 10:09:23 27° NW 10:12:12 10° NNE daylight
29 Aug - 18:15:59 10° NW 18:19:12 76° NE 18:22:26 10° SE daylight
30 Aug - 09:12:34 10° SW 09:15:47 69° NW 09:19:01 10° NE daylight
30 Aug - 17:22:44 10° NNW 17:25:37 29° NE 17:28:30 10° ESE daylight
30 Aug - 19:00:14 10° W 19:01:49 13° SW 19:03:16 10° SSW daylight
31 Aug - 08:19:12 10° SSW 08:22:15 41° SE 08:25:20 10° ENE daylight
31 Aug - 09:57:38 10° WNW 09:58:50 11° NW 09:59:54 10° NNW daylight
31 Aug - 16:30:06 10° N 16:31:51 14° NE 16:33:42 10° ENE daylight
31 Aug - 18:05:25 10° WNW 18:08:19 31° SW 18:11:12 10° SSE daylight
01 Sep - 07:26:40 10° SSE 07:28:45 17° SE 07:30:57 10° E daylight
01 Sep - 09:02:21 10° W 09:05:02 23° NW 09:07:40 10° NNE daylight
01 Sep - 17:11:33 10° NW 17:14:48 87° SW 17:18:01 10° SE daylight
02 Sep - 08:08:08 10° SW 08:11:19 56° NW 08:14:31 10° NNE daylight
02 Sep - 16:18:08 10° NNW 16:21:08 34° NE 16:24:08 10° ESE daylight
02 Sep - 17:56:29 10° WSW 17:57:18 11° SW 17:57:55 10° SW daylight
03 Sep - 07:14:35 10° SSW 07:17:43 51° SE 07:20:52 10° NE daylight
03 Sep - 15:25:15 10° N 15:27:20 16° NE 15:29:29 10° E daylight
03 Sep - 17:00:59 10° WNW 17:03:44 25° SW 17:06:27 10° S daylight
04 Sep - 06:21:44 10° S 06:24:08 20° SE 06:26:36 10° ENE visible
04 Sep - 07:57:57 10° W 08:00:26 20° NW 08:02:53 10° N daylight
04 Sep - 16:06:55 10° NW 16:10:09 70° SW 16:13:21 10° SE daylight
05 Sep - 07:03:31 10° WSW 07:06:39 46° NW 07:09:46 10° NNE daylight
05 Sep - 15:13:21 10° NNW 15:16:26 41° NE 15:19:31 10° ESE daylight
